Regional Weather Roundup
Issued by NWS Grand Forks, ND

Home | Current Version | Previous Version | Text Only | Print | Product List | Glossary On
Versions: 1 2 3 4 5 6 7 8 9 10 11 12 13 14 15 16 17 18 19 20 21 22 23 24 25 26 27 28 29 30 31 32 33 34 35 36 37 38 39 40 41 42 43 44 45 46 47 48 49 50
000
ASUS43 KFGF 191431
RWRFGF
PRAIRIE TO PINES  WEATHER ROUNDUP
NATIONAL WEATHER SERVICE EASTERN NORTH DAKOTA/GRAND FORKS ND
900 AM CDT FRI SEP 19 2014

 **SATELLITE DATA USED TO AUGMENT SKY COVER AT AUTOMATED STATIONS**
 *****  WEATHER ACROSS EASTERN NORTH DAKOTA  *****

CITY           SKY/WX    TMP DP  RH WIND       PRES   REMARKS
GRAND FORKS    CLOUDY    64  60  87 S13       29.53S
GRAND FRKS AFB CLOUDY    65  64  98 S13       29.53S
GRAND FRKS NWS   N/A     63 N/A N/A S16         N/A
DEVILS LAKE    CLOUDY    66  57  72 W12       29.53R
FARGO          CLOUDY    63  57  81 S18       29.62F
WAHPETON ARPT  CLOUDY    63  55  77 S13       29.68F
$$

 ***** WEATHER ACROSS CENTRAL AND WESTERN NORTH DAKOTA  *****

CITY           SKY/WX    TMP DP  RH WIND       PRES   REMARKS
BISMARCK       CLOUDY    68  61  78 SW8       29.61S
MINOT          CLOUDY    64  56  75 SW15      29.55R
JAMESTOWN      CLOUDY    64  61  90 S9        29.59R
MINOT AFB      CLOUDY    63  55  77 W7        29.52R
GARRISON         N/A     64  58  80 W7        29.58S
WILLISTON      MOSUNNY   62  50  64 SW10      29.62R
DICKINSON      PTSUNNY   63  54  72 W15       29.67R
HETTINGER      CLOUDY    63  54  72 W10       29.72R
$$

 *****  OTHER AIRPORT OBSERVATIONS IN OUR AREA  *****

CITY           SKY/WX    TMP DP  RH WIND       PRES   REMARKS
WALHALLA         N/A     66  64  94 SE5       29.47F
GRAFTON AIRPOR FAIR      63  63 100 S8        29.51R
VALLEY CITY AR PTSUNNY   63  63 100 SW20      29.60S FOG
CANDO          LGT RAIN  64  59  82 W16       29.55R
CAVALIER APRT  FAIR      64  63  94 S6        29.48F
GWINNER        CLOUDY    64  64 100 SW17      29.65F
SHEYENNE NWR     N/A     65  61  88 S14       29.95
ROLLA          PTSUNNY   63  61  94 NW7G16    29.53S
 ***** THE ABOVE OBSERVATIONS ARE NON NWS ARE NOT QUALITY
       CONTROLLED AND MAY MIS-REPORT RAIN FOR SNOW...
$$

  *****  WEATHER ACROSS NORTHERN MINNESOTA  *****

CITY           SKY/WX    TMP DP  RH WIND       PRES   REMARKS
FLAG ISLAND    CLOUDY    59  57  94 S8        29.53R
WARROAD        CLOUDY    63  59  88 S7        29.56R
ROSEAU         LGT RAIN  63  57  82 SW8       29.55R
HALLOCK        CLOUDY    63  59  88 S10       29.50F
THF RVR FALLS  CLOUDY    63  57  82 S16G25    29.57R
BAUDETTE       CLOUDY    62  56  80 S12       29.59F
WASKISH        CLOUDY    63  55  77 S7G17     29.60F
CROOKSTON      LGT RAIN  63  59  88 S25       29.58R
STEPHEN NDAWN    N/A    N/A N/A N/A S13         N/A
GREENBUSH NDAW   N/A     63  59  88 S12         N/A
$$
  *****  WEATHER ACROSS CENTRAL AND WEST MINNESOTA  *****

CITY           SKY/WX    TMP DP  RH WIND       PRES   REMARKS
FOSSTON        LGT RAIN  57  55  94 S17G24    29.61F
BEMIDJI        CLOUDY    58  55  90 S8G16     29.63F
PARK RAPIDS    CLOUDY    59  56  89 SW12      29.73R
ELBOW LAKE     CLOUDY    61  57  87 S15       29.72S
WADENA         CLOUDY    59  55  88 SW9       29.73R
DETROIT LAKES  CLOUDY    61  55  82 S15       29.69F
MOORHEAD       CLOUDY    63  61  94 S12G20    29.64F
FERGUS FALLS   CLOUDY    63  55  77 S13       29.70F
MORRIS MN      CLOUDY    63  57  82 S13       29.71R
STAPLES        CLOUDY    57  55  94 S15G22    29.70F
$$
  *****  WEATHER ELSEWHERE ACROSS MINNESOTA  *****

CITY           SKY/WX    TMP DP  RH WIND       PRES   REMARKS
DULUTH         CLOUDY    60  52  74 S20G30    29.81F
INTRNTL FALLS  CLOUDY    59  54  83 S9        29.63F
ELY            CLOUDY    57  52  82 S17G25    29.74F
CLOQUET        CLOUDY    59  52  77 S14G24    29.81F
WHEATON        CLOUDY    61  57  88 S8        29.71F
BRAINERD       CLOUDY    58  54  86 S14G22    29.76F
HIBBING        CLOUDY    60  53  77 S12G21    29.76F
ALEXANDRIA     CLOUDY    60  57  89 S21       29.72F
SAINT CLOUD    CLOUDY    63  55  75 S13       29.82F
MINNEAPOLIS    PTSUNNY   59  51  75 SE9       29.90F
$$

  *****  WEATHER ACROSS SOUTH DAKOTA  *****

CITY           SKY/WX    TMP DP  RH WIND       PRES   REMARKS
SIOUX FALLS    CLOUDY    66  62  87 S17G25    29.78F
BROOKINGS      NOT AVBL
WATERTOWN      CLOUDY    61  61 100 S15G22    29.70S FOG
HURON          CLOUDY    66  62  87 S13G22    29.68S
SISSETON         N/A     65  62  90 SW12G18   29.68R
ABERDEEN       CLOUDY    62  60  93 SE9       29.65F FOG
MITCHELL       MOSUNNY   68  64  87 S17G24    29.70F
PIERRE         PTSUNNY   64  61  90 W5        29.66R
MOBRIDGE       PTSUNNY   63  63 100 S8        29.64S
RAPID CITY     PTSUNNY   66  52  60 SW3       29.81R
$$

  *****  SOME WEATHER IN NEARBY STATES *****

CITY           SKY/WX    TMP DP  RH WIND       PRES   REMARKS
GLASGOW MT     SUNNY     57  46  66 W6        29.69R
GREAT FALLS MT CLOUDY    61  44  53 W15       29.85R
CHEYENNE WY    MOSUNNY   62  39  42 NW9G20    30.07R
SCOTTSBLUFF NE MOSUNNY   61  53  75 W13       29.94R
OMAHA NE       CLOUDY    64  60  87 S18       29.93S FOG
DES MOINES IA  PTSUNNY   62  56  80 S13       30.00F
DAVENPORT IA   SUNNY     58  51  78 SE7       30.11S
CHICAGO IL     MOSUNNY   60  52  74 S7        30.16R
EAU CLAIRE WI  PTSUNNY   59  51  75 S15       29.97F
LA CROSSE WI   SUNNY     59  51  75 S13       30.02F
$$

  *****  SOME NATIONAL WEATHER *****

CITY           SKY/WX    TMP DP  RH WIND       PRES   REMARKS
LA GUARDIA NY  MOSUNNY   58  44  60 NE16      30.33R
RALEIGH NC     PTSUNNY   69  57  65 E12       30.19R
ATLANTA GA     MOSUNNY   74  66  76 E10       30.09R
NEW ORLEANS LA PTSUNNY   79  69  71 E13       29.95S
OKLAHOMA CITY  FOG       70  68  94 SE6       30.00R VSB 1/2
ALBUQUERQUE NM PTSUNNY   65  56  72 NE3       30.10R
SALT LAKE CITY PTCLDY    61  58  90 SW5       30.01R
LOS ANGELES CA CLOUDY    69  61  75 SW3       29.89R
BOISE ID       CLEAR     57  48  72 CALM      30.05R
SEATTLE WA     CLOUDY    63  57  82 S5        30.05S
$$

*** WEATHER ACROSS MANITOBA...SASKATCHEWAN AND ONTARIO ***
                ***ONTARIO***

CITY           SKY/WX    TMP DP  RH WIND       PRES   REMARKS
GERALDTON      LGT RAIN N/A N/A N/A S20G28      N/A
THUNDER BAY    CLOUDY    57  52  82 SW6G17    29.82R
SIOUX LOOKOUT  LGT RAIN  59  55  88 SW13G23   29.56F
TORONTO        PTSUNNY   50  41  71 NE6       30.34R
BIG TROUT LK   CLOUDY    50  50 100 SW7       29.39F
PICKLE LAKE    CLOUDY    54  52  94 SW10G17   29.51F
DRYDEN         NOT AVBL
KENORA         CLOUDY    61  57  88 S14G21    29.53F
$$
                *** MANITOBA***

CITY           SKY/WX    TMP DP  RH WIND       PRES   REMARKS
BRANDON        CLOUDY    59  57  94 SE3       29.47F
DAUPHIN        MOSUNNY   57  54  88 N5        29.51R
ISLAND LAKE    CLOUDY   N/A N/A N/A NW6         N/A  FOG
PILOT MOUND    NOT AVBL
THE PAS        NOT AVBL
THOMPSON       DRIZZLE   48  48 100 NW7       29.50
WINNIPEG       CLOUDY    64  59  82 S14       29.48R
LYNN LAKE      CLOUDY    46  41  81 N6        29.55R
CHURCHILL      CLOUDY    41  36  81 NW20      29.40
GILLAM         CLOUDY    46  46 100 NW12      29.45R
$$
                ***SASKATCHEWAN***

CITY           SKY/WX    TMP DP  RH WIND       PRES   REMARKS
ESTEVAN        PTSUNNY   61  54  77 W12       29.55S
KINDERSLEY     PTCLDY    52  50  93 W7        29.68R
LLOYDMINSTER   MOCLDY    52  48  87 W10       29.63
PRINCE ALBERT  CLOUDY    52  52 100 CALM      29.59R
REGINA         PTSUNNY   55  54  94 N8        29.57R
YORKTON        PTSUNNY   54  52  94 NW5       29.52S
N. BATTLEFORD  LGT RAIN  54  50  87 W7        29.65R
LA RONGE       CLOUDY    50  50 100 VRB2      29.60R
SASKATOON      CLOUDY    52  50  93 SW6       29.63R
SWIFT CURRENT  MOCLDY    54  52  94 W9        29.67R
$$
NOTE: THESE ARE AUTOMATED STATIONS WITH LIMITED QUALITY CONTROL
      "FAIR" INDICATES FEW OR NO CLOUDS BELOW 12,000 FEET WITH NO
      SIGNIFICANT WEATHER AND/OR OBSTRUCTIONS TO VISIBILITY.
      SKY/WX - SKY CONDITION AND SIGNIFICANT WEATHER.
      TMP - AIR TEMPERATURE.    DP   - DEWPOINT TEMPERATURE.
      RH  - RELATIVE HUMIDITY.  PRES - PRESSURE.
      HX  - HEAT INDEX.         WCI  - WIND CHILL INDEX.
$


USA.gov is the U.S. government's official web portal to all federal, state and local government web resources and services.